Regional Weather Roundup
Issued by NWS

Home | Current Version | Previous Version | Text Only | Print | Product List | Glossary Off
Versions: 1 2 3 4 5 6 7 8 9 10 11 12 13 14 15 16 17 18 19 20 21 22 23 24 25 26 27 28 29 30 31 32 33 34 35 36 37 38 39 40 41 42 43 44 45 46 47 48 49 50

000
ASUS43 KOAX 201010
RWRNE

WEATHER ROUNDUP FOR NEBRASKA
NATIONAL WEATHER SERVICE OMAHA NE
500 AM CDT WED AUG 20 2014

NOTES: SATELLITE DATA IS BEING USED TO AUGMENT CLOUD COVER ABOVE
       12000 FEET.
       "FAIR" INDICATES FEW OR NO CLOUDS BELOW 12,000 FEET WITH NO
       SIGNIFICANT WEATHER AND/OR OBSTRUCTIONS TO VISIBILITY.

  * THESE STATIONS DO NOT REPORT WEATHER SUCH AS RAIN...SNOW OR FOG.

NEZ001>004-019>022-054>056-201100-
NEBRASKA PANHANDLE

CITY           SKY/WX    TMP DP  RH WIND       PRES   REMARKS
SCOTTSBLUFF    CLOUDY    65  59  81 E5        29.83R
ALLIANCE       CLOUDY    64  57  78 S6        29.83R
CHADRON        CLOUDY    74  53  48 SW8       29.74S
KIMBALL        CLOUDY    64  54  71 S9        29.89R
SIDNEY         CLOUDY    63  59  87 E10       29.85S
$$

NEZ057>060-069>072-079>082-201100-
SOUTHWEST NEBRASKA

CITY           SKY/WX    TMP DP  RH WIND       PRES   REMARKS
NORTH PLATTE   MOCLDY    71  62  73 S10       29.74F
IMPERIAL       CLOUDY    67  62  84 S3        29.78F
LEXINGTON      CLOUDY    73  67  82 S12       29.75F
MCCOOK         CLOUDY    74  61  63 SE7       29.77F
OGALLALA       MOCLDY    63  61  94 CALM      29.78F
$$

NEZ005>010-023>029-035>040-094-201100-
NORTH CENTRAL NEBRASKA

CITY           SKY/WX    TMP DP  RH WIND       PRES   REMARKS
VALENTINE      PTCLDY    65  64  97 CALM      29.73S
AINSWORTH      MOCLDY    67  66  97 SE5       29.73F
BROKEN BOW     CLOUDY    70  67  90 SE6       29.74F
O`NEILL        CLOUDY    72  69  90 SE8       29.75F
ORD            CLOUDY    72  67  84 SE3       29.73F
THEDFORD       MOCLDY    72  60  66 S8        29.77R
$$

NEZ041-046>049-061>064-073>077-083>087-201100-
SOUTH CENTRAL NEBRASKA

CITY           SKY/WX    TMP DP  RH WIND       PRES   REMARKS
GRAND ISLAND   CLOUDY    74  66  76 S10       29.77S
AURORA         CLOUDY    74  68  82 S10       29.77S
HASTINGS       MOCLDY    70  63  78 S5        29.78S
HEBRON         CLOUDY    73  64  75 S3        29.79S
HOLDREGE       MOCLDY    73  64  74 S3        29.79S
KEARNEY *      MOCLDY    72  64  78 S10       29.79S
YORK           CLOUDY    73 N/A N/A SW10      29.77F
$$

NEZ011>018-030>034-042>045-201100-
NORTHEAST NEBRASKA

CITY           SKY/WX    TMP DP  RH WIND       PRES   REMARKS
NORFOLK        CLOUDY    73  68  84 NE5       29.73F
ALBION         CLOUDY    72  66  80 SE3       29.74F
BLAIR          CLOUDY    72  67  85 E6        29.77R
COLUMBUS *     CLOUDY    70  68  94 SE5       29.76F
FREMONT        CLOUDY    75  69  79 SE6       29.75R
TEKAMAH        CLOUDY    70  67  90 N9        29.77R THUNDER
WAYNE          TSTM      71  67  88 NE12      29.80R
$$

NEZ050>053-065>068-078-088>093-201100-
SOUTHEAST NEBRASKA

CITY           SKY/WX    TMP DP  RH WIND       PRES   REMARKS
LINCOLN        CLOUDY    77  67  71 SW10      29.76F
OMAHA EPPLEY   CLOUDY    75  67  76 SE7       29.76S
BEATRICE       CLOUDY    75  68  79 S9        29.78S
FALLS CITY     CLOUDY    75  69  81 S9        29.77S
NEBRASKA CITY  CLOUDY    72  72 100 S8        29.77S
PLATTSMOUTH    CLOUDY    74  69  85 S7        29.76S
$$

NEZ044-045-051>053-067-201100-
OMAHA AREA

CITY           SKY/WX    TMP DP  RH WIND       PRES   REMARKS
OMAHA EPPLEY   CLOUDY    75  67  76 SE7       29.76S
BLAIR          CLOUDY    72  67  85 E6        29.77R
FREMONT        CLOUDY    75  69  79 SE6       29.75R
MILLARD        CLOUDY    74  70  86 SE3       29.75R
OFFUTT AFB     CLOUDY    72  72 100 E5        29.75S
PLATTSMOUTH    CLOUDY    74  69  85 S7        29.76S
WAHOO          FAIR      72  68  88 SE5       29.74S
$$



USA.gov is the U.S. government's official web portal to all federal, state and local government web resources and services.